[[{"header":{"parameterUnit":"m.s-1","parameterCategory":1,"la1":30.2991,"la2":30.254,"lo1":-89.0895,"lo2":-89.0444,"dy":0.0017,"dx":0.0017,"nx":28,"ny":28,"refTime":"2024-09-27T21:00:00:Z","depth":0,"parameterNumber":2,"parameterNumberName":"U-component_of_WINDS"},"data":[0,0,0,0,0,0,0,0,0,0,0,0,0,0,0,0,0,0,0,0,0,0,0,0,0,0,0,0,0,0,0,0,0,0,0,0,0,0,0,0,0,0,0,0,0,0,0,0,0,0,0,0,0,0,0,0,0,0,5.4935,5.4936,0,5.5015,5.5015,5.5016,5.4992,5.499,5.4989,5.4987,5.507,5.5073,5.5077,0,0,0,0,0,0,0,0,0,0,0,0,0,5.4764,5.4767,5.4935,5.4936,5.4937,5.5014,5.5016,5.5017,5.4992,5.499,5.4988,5.4986,5.5069,5.5073,5.5078,0,0,0,0,0,0,0,0,0,0,0,0,0,5.4841,5.4769,5.4935,5.4934,5.4935,5.5014,5.5016,5.5017,5.4993,5.499,5.4988,5.4985,5.5067,5.5073,5.5078,5.5163,0,0,5.5095,5.5098,0,0,0,0,0,0,0,0,5.4836,5.4847,5.4933,5.4934,5.4935,5.4991,5.4986,5.5066,5.4993,5.4971,5.4987,5.4984,5.5046,5.5053,5.5073,5.5167,5.5171,5.5096,5.5099,5.5102,5.5103,0,0,0,0,0,0,0,5.4831,5.4843,5.4967,5.4935,5.4936,5.4931,5.4939,5.5001,5.5021,5.4973,5.4971,5.4981,5.5046,5.5068,5.5075,5.5172,5.5096,5.5101,5.5104,5.5106,5.534,5.5343,0,0,0,0,0,0,5.4825,5.4839,5.4964,5.4969,5.4879,5.4936,5.4945,5.4976,5.5021,5.5025,5.4983,5.4979,5.506,5.5069,5.5078,5.518,5.5102,5.5107,5.511,5.5337,5.5341,5.5344,0,0,0,0,0,0,5.4821,5.4836,5.4961,5.4904,5.4919,5.4941,5.4976,5.4978,5.5001,5.5028,5.5032,5.5001,5.5058,5.507,5.5142,5.5183,5.5109,5.5115,5.5334,5.5338,5.5342,5.5385,0,0,0,0,0,0,5.4816,5.4835,5.4867,5.4905,5.4922,5.5023,5.4979,5.4982,5.501,5.5006,5.5047,5.5051,5.5057,5.5134,5.5148,5.5189,5.5119,5.533,5.5336,5.5341,5.538,5.539,5.5399,0,0,0,0,0,5.481,5.4876,5.4869,5.4884,5.4963,5.5025,5.5036,5.504,5.5014,5.5046,5.5064,5.505,5.5176,5.5141,5.5157,5.52,5.5328,5.5334,5.534,5.5376,5.5388,5.5399,0,0,0,0,0,0,5.4843,5.4881,5.4873,5.4953,5.4986,5.5021,5.5062,5.5053,5.5095,5.509,5.5095,5.5104,5.5178,5.5197,5.5157,5.5286,5.5248,5.5258,5.527,5.5282,5.5291,5.5284,5.5124,0,0,0,0,0,5.4859,5.4907,5.4938,5.5005,5.5022,5.504,5.5067,5.5068,5.5103,5.5117,5.514,5.5175,5.5223,5.5254,5.5299,5.5384,5.5392,5.5422,5.5431,5.5439,5.5446,5.5492,5.5506,5.5364,5.5364,5.5364,0,0,5.4893,5.492,5.495,5.5012,5.5038,5.5088,5.5052,5.5105,5.5142,5.5125,5.5194,5.5213,5.5252,5.5331,5.5367,5.5349,5.5488,5.5447,5.5452,5.5456,5.55,5.5514,5.5525,5.5369,5.5368,5.5367,0,0,5.4981,5.5006,5.5065,5.5092,5.5131,5.5143,5.5157,5.5194,5.5206,5.5275,5.5264,5.5308,5.539,5.5419,5.5444,5.5544,5.5532,5.5559,5.5607,5.5652,5.5663,5.5673,5.5708,5.572,5.5567,5.5567,5.5567,0,5.5018,5.5091,5.5096,5.5151,5.5179,5.5167,5.5226,5.5253,5.5305,5.5325,5.5305,5.5407,5.5433,5.5518,5.5542,5.5564,5.558,5.5553,5.5661,5.5671,5.568,5.5714,5.5727,5.557,5.557,5.5569,5.5569,0,5.5135,5.5187,5.523,5.528,5.5313,5.5371,5.5385,5.5418,5.5417,5.5431,5.5502,5.5533,5.5584,5.5605,5.5604,5.569,5.5678,5.566,5.5622,5.5697,5.5728,5.5741,5.5574,5.5573,5.5572,5.5571,0,0,5.5243,5.5297,5.5312,5.5335,5.5379,5.5419,5.5476,5.5526,5.5554,5.5592,5.564,5.571,5.5694,5.5722,5.5726,5.5765,5.5842,5.5742,5.5743,5.5758,5.5938,5.595,5.5964,5.5835,5.5838,5.584,5.5934,0,5.5332,5.5432,5.5439,5.5529,5.5576,5.5567,5.5616,5.5649,5.5664,5.5707,5.5725,5.5774,5.5749,5.5766,5.5805,5.5824,5.5878,5.5818,5.5879,5.5882,5.5868,5.5981,5.5994,5.6081,5.5946,5.5948,5.595,0,5.545,5.549,5.5585,5.5623,5.5643,5.5688,5.5734,5.5776,5.5813,5.5822,5.5855,5.5852,5.5912,5.5874,5.5956,5.5915,5.5941,5.5955,5.5958,5.5962,5.5919,5.5987,5.6109,5.6121,5.5969,5.5968,5.5967,0,5.5517,5.5596,5.5663,5.5683,5.5729,5.5761,5.5781,5.5816,5.5846,5.5888,5.5907,5.5955,5.5981,5.6019,5.603,5.6002,5.6112,5.6075,5.612,5.612,5.6142,5.614,5.6268,5.6162,5.6162,5.6162,5.6161,0,5.5615,5.5673,5.5693,5.5734,5.58,5.5808,5.5872,5.5891,5.5923,5.5968,5.5963,5.6006,5.6019,5.6064,5.6073,5.6139,5.6152,5.616,5.6161,5.6159,5.6158,5.6175,5.6168,5.6165,5.6164,5.6164,5.6163,0,5.57,5.5716,5.5788,5.5826,5.5837,5.5883,5.5916,5.5956,5.5971,5.6028,5.6042,5.6066,5.6119,5.6134,5.6198,5.6205,5.6282,5.6279,5.6269,5.6268,5.6312,5.6307,5.6454,5.6473,5.6356,5.6357,5.6358,0,5.5761,5.5805,5.5848,5.5878,5.59,5.5948,5.5978,5.5989,5.6021,5.6068,5.6102,5.6154,5.6196,5.6281,5.6305,5.6354,5.635,5.6399,5.6358,5.6354,5.6349,5.6346,5.635,5.6406,5.6407,5.6408,5.6409,0,5.5866,5.5872,5.5916,5.5963,5.6,5.6038,5.6074,5.6099,5.6115,5.6152,5.6205,5.6238,5.6303,5.6355,5.6405,5.6427,5.6421,5.6422,5.6435,5.6432,5.6423,5.6427,5.6288,5.6418,5.6417,5.6416,5.6416,5.6416,5.594,5.5979,5.6015,5.6064,5.6093,5.6128,5.6167,5.6187,5.6232,5.6285,5.629,5.6348,5.6385,5.6452,5.6477,5.6523,5.6508,5.6527,5.6532,5.6536,5.6538,5.6418,5.6532,5.6532,5.6532,5.6531,5.6531,0,5.6043,5.6067,5.6112,5.6163,5.6202,5.6194,5.6234,5.6267,5.6318,5.6354,5.6396,5.6458,5.6508,5.6536,5.6587,5.6619,5.6617,5.6631,5.6628,5.6633,5.6549,5.6532,5.6632,5.6632,5.6632,5.6632,5.6632,5.6632,5.6102,5.6167,5.6178,5.6258,5.6281,5.6337,5.6361,5.6393,5.6421,5.6491,5.6533,5.6551,5.6584,5.6637,5.6683,5.669,5.6708,5.6724,5.6729,5.665,5.6639,5.6629,5.6613,5.6728,5.6729,5.6809,5.681,5.6811]},{"header":{"parameterUnit":"m.s-1","parameterCategory":1,"la1":30.2991,"la2":30.254,"lo1":-89.0895,"lo2":-89.0444,"dy":0.0017,"dx":0.0017,"nx":28,"ny":28,"refTime":"2024-09-27T21:00:00:Z","depth":0,"parameterNumber":3,"parameterNumberName":"V-component_of_WINDS"},"data":[0,0,0,0,0,0,0,0,0,0,0,0,0,0,0,0,0,0,0,0,0,0,0,0,0,0,0,0,0,0,0,0,0,0,0,0,0,0,0,0,0,0,0,0,0,0,0,0,0,0,0,0,0,0,0,0,0,0,3.8406,3.8407,0,3.8512,3.8513,3.8514,3.8545,3.8544,3.8543,3.8543,3.8646,3.8649,3.8653,0,0,0,0,0,0,0,0,0,0,0,0,0,3.8227,3.823,3.8406,3.8408,3.8409,3.8511,3.8513,3.8514,3.8545,3.8544,3.8543,3.8543,3.8645,3.8649,3.8653,0,0,0,0,0,0,0,0,0,0,0,0,0,3.8316,3.8231,3.8406,3.8437,3.844,3.8511,3.8513,3.8515,3.8545,3.8544,3.8543,3.8542,3.8644,3.8649,3.8653,3.87,0,0,3.8668,3.867,0,0,0,0,0,0,0,0,3.8311,3.8322,3.8431,3.8435,3.8439,3.8514,3.8488,3.8577,3.8545,3.8505,3.8543,3.8542,3.8603,3.8611,3.8632,3.8705,3.8709,3.8669,3.8672,3.8674,3.8675,0,0,0,0,0,0,0,3.8304,3.8318,3.8448,3.8432,3.8437,3.8443,3.8455,3.8505,3.8557,3.8508,3.8511,3.8523,3.8605,3.8627,3.8635,3.8711,3.8669,3.8673,3.8676,3.8678,3.8826,3.8827,0,0,0,0,0,0,3.8294,3.8312,3.8444,3.8451,3.8372,3.8447,3.846,3.8491,3.8557,3.8566,3.8524,3.8524,3.862,3.8629,3.8639,3.8697,3.8674,3.8678,3.8681,3.8825,3.8826,3.8827,0,0,0,0,0,0,3.829,3.8305,3.844,3.8382,3.84,3.8451,3.8485,3.8493,3.8516,3.8568,3.8577,3.8538,3.8619,3.8632,3.8685,3.8701,3.8681,3.8685,3.8824,3.8826,3.8827,3.8815,0,0,0,0,0,0,3.8284,3.8304,3.8323,3.8383,3.8403,3.8486,3.8486,3.8496,3.8525,3.8527,3.8584,3.8592,3.862,3.8677,3.869,3.8708,3.8689,3.8823,3.8825,3.8826,3.8814,3.8816,3.8817,0,0,0,0,0,3.8278,3.8314,3.8324,3.8339,3.8429,3.8487,3.8498,3.853,3.8526,3.8545,3.8579,3.8591,3.8698,3.8682,3.8697,3.8716,3.8822,3.8824,3.8826,3.8813,3.8815,3.8817,0,0,0,0,0,0,3.8253,3.8323,3.8334,3.8391,3.8433,3.8492,3.8517,3.8532,3.8574,3.8574,3.861,3.8623,3.8673,3.87,3.8682,3.8765,3.876,3.8765,3.8745,3.8748,3.8749,3.8741,3.8693,0,0,0,0,0,3.8255,3.8298,3.8356,3.84,3.8421,3.8465,3.8492,3.8513,3.8557,3.8574,3.8612,3.8653,3.8696,3.8723,3.8766,3.8818,3.883,3.8839,3.884,3.8841,3.8845,3.8874,3.8878,3.8835,3.8835,3.8835,0,0,3.8258,3.8301,3.8326,3.8397,3.8432,3.8474,3.848,3.8524,3.8556,3.8581,3.8634,3.8662,3.871,3.8763,3.8788,3.8787,3.886,3.8844,3.8845,3.8848,3.8877,3.8881,3.8885,3.8836,3.8836,3.8836,0,0,3.8285,3.8323,3.8364,3.8399,3.8453,3.8482,3.8492,3.8549,3.8569,3.8623,3.8643,3.8679,3.8753,3.8786,3.8813,3.8853,3.8865,3.8865,3.8874,3.8902,3.8905,3.8908,3.8922,3.8926,3.8869,3.8869,3.8869,0,3.8282,3.8348,3.8383,3.8427,3.8457,3.8483,3.8525,3.8556,3.862,3.8639,3.8638,3.8731,3.8765,3.8826,3.8835,3.8856,3.8868,3.8859,3.8902,3.8906,3.8909,3.8922,3.8928,3.8869,3.8869,3.8869,3.8869,0,3.8341,3.8386,3.8413,3.8475,3.8508,3.8551,3.8591,3.862,3.8638,3.8667,3.872,3.8763,3.8814,3.883,3.8847,3.8893,3.8891,3.8895,3.8891,3.8912,3.8925,3.8931,3.8868,3.8868,3.8869,3.8869,0,0,3.8355,3.8437,3.8446,3.8475,3.8536,3.8571,3.8613,3.8665,3.8689,3.8732,3.8768,3.8829,3.8834,3.8864,3.8885,3.891,3.8938,3.8911,3.8913,3.8914,3.899,3.8986,3.8992,3.8947,3.8948,3.8949,3.8986,0,3.8389,3.8469,3.8502,3.8565,3.8607,3.8633,3.867,3.871,3.8738,3.8777,3.8807,3.885,3.8853,3.8871,3.8897,3.8929,3.8954,3.8927,3.8979,3.8981,3.8966,3.8999,3.8995,3.9028,3.8992,3.8992,3.8993,0,3.844,3.8485,3.8553,3.8609,3.8628,3.8661,3.8711,3.8748,3.8793,3.8812,3.8846,3.8866,3.8911,3.8904,3.8965,3.8946,3.8969,3.8989,3.8991,3.8996,3.8988,3.9005,3.904,3.9044,3.9002,3.9001,3.9,0,3.8443,3.852,3.8571,3.8595,3.8661,3.8684,3.8712,3.8758,3.8787,3.883,3.8849,3.8896,3.8921,3.8956,3.8988,3.8981,3.9046,3.9042,3.9061,3.9061,3.9074,3.9072,3.9112,3.9089,3.9089,3.9089,3.9089,0,3.8477,3.8518,3.8573,3.8604,3.865,3.8687,3.8731,3.8761,3.8801,3.8837,3.8862,3.8895,3.8935,3.8973,3.8998,3.9045,3.9056,3.9071,3.9077,3.9069,3.9067,3.9084,3.9083,3.909,3.909,3.909,3.909,0,3.8488,3.8527,3.8584,3.8643,3.8659,3.869,3.8739,3.8769,3.8799,3.8845,3.8857,3.8903,3.8949,3.8985,3.9044,3.9061,3.9109,3.9116,3.9094,3.9097,3.9115,3.9112,3.9167,3.9175,3.9147,3.9147,3.9147,0,3.8507,3.8539,3.8602,3.8629,3.8658,3.8701,3.8731,3.8768,3.8798,3.8853,3.8876,3.8924,3.8965,3.9037,3.9074,3.9119,3.9127,3.9143,3.9134,3.9124,3.9127,3.9124,3.9127,3.9144,3.9144,3.9144,3.9144,0,3.8537,3.8555,3.8598,3.8649,3.8684,3.8725,3.8766,3.8786,3.883,3.8862,3.8911,3.8942,3.9004,3.905,3.91,3.9127,3.9143,3.9147,3.9154,3.9145,3.9131,3.9139,3.9097,3.9145,3.9145,3.9145,3.9145,3.9145,3.8552,3.8582,3.8631,3.8678,3.8714,3.8751,3.8783,3.8817,3.8859,3.8913,3.8931,3.8981,3.9025,3.9094,3.9122,3.916,3.916,3.917,3.9173,3.9174,3.9173,3.9125,3.9169,3.9169,3.9169,3.9169,3.9169,0,3.8583,3.8616,3.8659,3.8717,3.8754,3.8767,3.8813,3.8843,3.8886,3.8928,3.8967,3.9022,3.9068,3.911,3.9157,3.9179,3.9188,3.9191,3.9189,3.9195,3.917,3.916,3.9183,3.9183,3.9183,3.9183,3.9183,3.9183,3.8603,3.8654,3.8678,3.8746,3.8778,3.8828,3.8853,3.8888,3.8921,3.8982,3.9021,3.9048,3.9089,3.914,3.9182,3.9193,3.9209,3.921,3.9222,3.9199,3.9197,3.9195,3.9185,3.9213,3.9213,3.9244,3.9244,3.9244]}]]